Wind_Speed
63 64 64 64 64 63 62 62 62 63 63 63 65 66 69 71 71 70 69 68 66 66 65 65 66 67 67 67 67 67 67 67 67 68 68 69 69 69 69 68 67 66 66 66 65 65 65 65 64 64 64 63 63 63 62 60 59 58 57 56 55 56 56 55 55 54 54 54 54 54 54 54 54 54 53 53 52 52 52 52 53 53 53 54 54
66 64 62 61 61 62 63 63 63 63 64 64 66 67 69 72 73 71 69 67 65 65 64 64 64 65 66 66 66 66 65 65 65 65 66 68 69 70 70 70 69 69 68 67 67 67 66 66 66 65 65 64 64 63 62 61 60 59 59 58 57 57 56 56 56 55 54 54 54 54 54 54 54 54 54 53 53 52 52 52 52 52 53 54 54
71 69 66 64 62 62 63 65 65 65 66 66 67 68 70 73 75 74 72 70 67 65 64 64 65 65 66 66 67 67 67 66 66 66 66 67 69 70 71 71 71 70 69 69 68 69 68 68 67 66 66 65 64 64 63 62 62 61 61 60 60 58 57 57 57 56 55 55 55 55 55 55 55 55 55 55 54 54 53 53 52 53 53 54 55
72 71 70 69 67 66 66 67 68 69 69 69 70 71 72 75 77 77 76 74 71 69 66 65 65 66 67 68 68 69 69 69 69 69 69 69 70 70 71 71 71 70 70 70 70 70 70 69 68 67 66 66 66 65 65 64 64 64 63 62 61 59 58 57 56 56 55 55 55 56 56 56 57 57 57 57 56 55 54 54 54 53 54 54 55
76 75 74 73 73 71 70 70 71 72 72 72 72 73 74 76 78 79 79 77 76 74 72 70 69 68 69 70 71 71 71 71 71 71 72 72 72 72 72 72 72 71 70 70 70 70 70 69 68 67 67 67 66 66 66 66 65 65 64 63 61 59 56 55 55 55 54 55 56 57 57 57 58 58 58 58 57 56 55 54 54 54 54 55 56
79 80 80 80 79 78 76 74 74 75 77 77 77 77 78 79 79 80 81 80 79 78 78 76 75 73 72 72 73 73 74 74 74 74 74 75 75 75 74 74 73 72 71 70 70 70 70 69 68 68 68 68 67 66 65 65 64 64 63 61 60 58 55 54 56 56 56 55 56 57 58 58 58 58 58 58 57 56 55 54 54 54 55 56 57
81 81 81 81 81 81 81 80 79 79 80 81 82 82 82 82 83 83 83 84 83 82 81 81 79 76 74 74 75 76 76 76 76 77 78 78 78 78 78 77 76 74 73 72 72 72 71 70 69 69 68 67 66 65 64 64 64 63 62 60 58 58 56 55 56 57 58 57 57 58 58 59 58 58 58 58 58 56 56 55 55 55 56 58 58
89 85 82 80 79 79 80 81 82 82 84 85 85 85 85 85 85 85 85 86 86 85 84 83 81 78 75 75 76 77 78 79 79 80 81 82 83 83 82 81 79 77 76 75 75 74 73 72 71 70 68 67 66 65 65 65 65 65 63 61 60 59 58 57 56 57 58 59 58 58 58 59 60 59 59 59 59 58 57 56 56 56 57 59 60
93 91 89 87 85 83 82 82 82 82 83 84 86 87 88 88 89 89 89 88 88 88 86 85 84 81 80 78 77 78 78 80 81 83 85 86 87 87 86 84 82 80 79 78 77 77 76 75 73 71 70 69 68 68 67 68 68 67 66 65 64 62 60 59 58 58 59 60 60 60 59 60 61 61 61 61 61 60 59 58 58 57 59 60 61
94 94 93 93 92 91 90 89 89 88 87 86 86 87 88 90 90 91 92 92 92 91 91 90 88 87 86 84 82 81 80 80 82 84 87 89 90 90 89 88 86 84 82 81 80 79 79 78 77 75 73 72 72 71 71 71 71 71 70 68 66 63 62 62 61 60 61 61 61 61 61 61 62 63 63 63 63 62 61 61 61 60 61 62 63
94 94 94 93 93 93 92 92 93 93 93 93 92 92 92 92 92 92 93 93 93 93 94 94 94 93 92 91 89 87 85 84 85 85 86 89 91 92 92 91 90 89 87 86 84 83 82 82 80 79 77 76 75 74 73 74 74 74 72 69 66 64 64 64 63 63 64 63 62 62 63 63 64 65 65 65 64 64 63 63 63 63 62 63 64
96 96 95 95 95 94 94 93 93 93 94 94 94 95 95 95 96 96 95 95 95 95 95 95 95 95 95 95 94 93 91 90 89 89 88 88 90 92 94 94 93 92 91 90 88 87 86 84 83 81 80 79 78 77 76 75 75 74 73 70 67 65 65 65 65 65 64 64 63 64 64 65 66 67 66 66 65 64 64 64 64 64 64 65 66
99 100 100 100 99 99 98 97 97 96 96 96 97 97 97 97 98 98 98 98 98 98 97 97 96 95 94 93 93 93 93 92 92 91 91 90 91 92 94 94 94 94 93 91 90 89 88 87 86 84 82 82 82 80 79 78 76 74 73 71 68 67 66 66 66 65 65 65 65 66 67 67 68 68 67 67 66 65 64 63 63 64 66 67 68
101 102 103 104 104 104 104 103 103 102 102 102 102 103 102 102 101 101 101 100 99 99 99 99 99 98 96 94 93 91 90 91 92 91 91 91 92 93 94 94 94 94 94 93 91 90 89 88 88 86 85 84 85 84 82 81 79 76 74 72 70 68 68 67 67 67 66 66 67 68 69 70 70 69 68 67 66 65 63 63 63 65 67 69 69
102 103 104 105 106 107 107 107 107 107 106 106 107 107 107 106 105 105 104 104 103 101 101 101 101 101 100 98 96 93 90 90 91 92 91 91 93 94 95 95 95 94 94 93 93 92 91 90 89 87 85 83 83 82 80 79 79 77 74 73 71 70 69 68 68 68 67 68 71 72 71 72 73 72 69 67 65 64 63 63 63 65 67 69 69
99 100 101 102 104 105 106 107 107 107 107 108 107 107 107 106 105 105 105 105 105 105 104 103 103 103 103 102 101 98 94 90 90 91 92 94 95 96 96 96 96 96 95 94 93 92 92 92 90 89 86 83 81 80 77 75 75 75 74 73 71 69 68 68 68 69 69 71 73 73 72 73 73 72 70 67 65 64 63 63 63 64 67 68 69
94 95 97 98 98 99 101 102 103 105 105 106 105 105 104 104 103 103 103 103 103 104 104 104 103 103 103 103 103 101 98 94 91 91 93 95 97 98 98 98 97 97 97 96 96 95 93 93 92 91 89 87 85 81 78 76 75 74 74 73 71 70 69 68 69 70 71 72 74 74 74 74 73 72 71 69 67 65 65 64 64 66 67 69 70
91 93 94 95 95 96 97 98 99 101 102 103 103 103 102 101 101 101 101 101 100 100 100 102 102 101 100 99 99 99 98 96 93 92 93 95 98 99 100 100 99 98 98 97 97 96 94 93 92 91 89 88 85 83 80 77 75 74 74 73 73 71 70 69 70 70 70 71 73 75 76 75 74 73 72 71 69 67 67 67 67 68 68 69 70
89 90 90 91 92 93 94 95 97 98 99 100 101 101 101 100 99 99 99 100 100 100 98 98 99 99 97 95 94 93 93 93 94 94 93 94 97 99 101 101 100 99 99 99 98 97 95 93 91 88 86 85 83 82 80 77 73 72 73 73 73 71 70 71 71 70 69 69 72 75 77 76 75 74 74 73 71 69 69 69 70 69 68 68 69
88 88 88 89 89 90 91 93 94 95 97 98 99 99 99 99 99 99 99 99 100 101 100 98 96 95 94 94 93 90 88 87 89 92 94 95 96 98 100 101 101 99 96 94 92 93 94 95 94 91 88 86 83 81 78 74 71 71 72 73 72 71 70 71 72 71 70 71 73 76 78 78 76 75 75 74 71 69 69 70 71 70 70 70 71
88 88 88 88 89 89 90 91 92 93 95 96 97 97 97 98 99 99 100 100 100 101 102 102 100 97 94 93 93 92 89 85 84 87 91 95 97 98 98 99 101 101 98 94 90 87 87 89 90 89 87 85 82 79 75 72 70 70 71 72 72 72 73 73 72 73 73 74 76 78 80 80 78 76 74 73 71 70 71 72 72 72 73 73 74
91 91 90 90 90 91 91 92 93 93 94 95 96 96 96 97 98 98 99 100 100 101 101 102 103 101 99 97 96 94 92 89 86 84 86 90 94 96 96 95 97 100 101 100 96 91 86 84 82 80 79 78 77 75 73 72 71 71 71 71 71 72 73 73 74 75 74 75 76 78 79 79 77 74 73 73 73 73 73 73 74 75 76 77 77
91 91 90 90 90 90 91 91 92 93 93 95 96 96 95 96 97 98 98 99 100 100 100 100 101 101 100 99 98 95 92 90 88 85 84 84 85 88 90 91 92 95 97 98 96 93 89 85 81 77 75 75 74 73 72 72 72 71 71 72 72 71 71 71 72 72 71 71 72 73 73 73 73 73 74 74 74 74 74 74 75 76 77 78 78
91 90 90 90 90 90 91 91 91 92 92 93 94 94 94 95 97 98 98 99 100 100 100 99 100 100 98 97 96 93 90 89 87 84 83 82 81 80 81 83 84 87 90 92 93 92 89 86 82 78 75 75 75 75 74 74 73 72 71 72 72 71 72 72 72 71 70 70 70 70 71 71 73 75 74 74 74 75 75 75 76 76 77 77 78
90 89 89 89 89 90 90 91 91 91 92 93 93 93 93 94 95 96 97 98 99 100 99 99 99 99 98 96 94 91 89 88 88 85 82 81 80 78 77 77 78 79 81 83 85 86 86 84 82 80 78 77 77 77 77 76 75 74 74 74 75 75 74 75 75 74 72 71 71 71 72 73 75 75 74 74 75 75 75 75 75 75 76 77 78
88 88 87 87 87 87 88 89 89 89 90 91 92 92 92 93 93 94 95 96 97 98 99 99 99 99 98 95 93 90 88 87 89 89 86 84 81 80 79 78 76 76 77 76 77 79 80 81 82 82 81 81 80 79 78 77 77 77 75 75 77 77 75 75 76 76 74 73 72 73 74 74 73 73 72 72 73 72 73 73 73 74 75 76 77
86 85 84 84 84 84 84 85 85 85 85 87 88 89 90 91 92 92 93 94 95 95 96 97 98 98 98 96 93 91 89 87 87 89 90 89 87 85 85 83 78 76 75 73 72 73 75 77 79 80 81 81 81 79 77 77 77 77 76 75 77 77 75 76 78 77 74 73 72 73 73 72 71 70 69 69 70 70 71 72 72 73 74 75 75
84 83 82 81 81 81 81 80 80 80 80 80 81 83 84 85 87 88 89 90 92 93 94 94 95 95 96 95 94 92 90 87 85 85 89 92 93 92 91 87 82 79 77 73 69 69 73 76 78 78 80 80 80 80 78 78 78 78 76 76 78 79 78 78 77 74 71 70 71 71 70 69 69 69 69 70 71 72 73 72 72 72 73 73 71
77 76 75 74 73 72 72 71 71 71 71 71 73 74 75 77 80 81 82 83 86 88 90 91 91 91 92 93 93 92 90 87 84 84 86 90 94 96 95 93 89 86 83 78 72 68 70 74 75 76 78 79 80 80 79 79 80 80 78 77 77 77 76 74 72 70 69 69 69 68 68 68 69 70 71 73 73 74 73 72 72 72 71 68 66
70 69 68 67 65 64 63 62 62 62 61 61 62 63 64 66 69 71 72 74 77 80 83 84 85 86 88 89 89 89 88 86 85 85 85 86 90 93 95 96 94 92 89 85 78 72 70 71 72 73 74 75 76 76 75 75 77 79 81 79 76 74 73 72 70 68 68 68 69 68 68 69 70 72 72 73 73 72 72 72 71 69 66 63 64
66 65 64 63 63 62 61 60 60 59 59 58 58 57 56 57 59 61 62 64 67 70 73 75 77 79 81 83 84 85 85 84 84 84 85 85 86 88 90 92 93 93 93 91 85 78 73 72 72 71 72 72 72 71 70 69 69 73 77 78 77 75 74 73 71 70 70 71 72 71 69 70 72 73 72 72 71 71 71 69 67 64 62 62 67
61 59 58 58 57 57 57 57 57 57 57 57 57 57 56 55 56 57 58 59 60 62 63 65 68 70 73 75 77 78 79 79 80 81 83 84 84 85 85 86 87 89 92 94 90 83 79 77 75 73 72 72 70 69 68 67 66 67 69 71 72 72 71 70 69 69 71 72 73 71 70 71 72 73 72 71 70 69 68 66 65 63 64 67 72
53 52 52 52 52 52 53 53 54 54 55 55 55 55 56 56 55 56 58 59 59 58 58 59 60 62 65 68 70 71 72 73 74 77 79 81 81 82 82 83 83 84 87 91 90 86 83 82 80 77 75 74 73 70 68 66 65 64 64 65 66 66 65 65 65 67 69 71 71 71 71 71 73 75 75 73 70 69 68 68 67 66 67 71 75
48 48 48 49 49 49 50 50 51 51 51 52 52 52 52 53 52 52 54 56 57 56 56 56 56 57 59 61 63 64 65 66 68 71 73 76 77 78 79 80 81 82 83 85 86 86 85 85 83 79 77 76 75 73 70 66 64 64 63 63 63 63 63 62 62 64 66 68 69 70 70 70 72 76 77 75 72 71 71 71 71 70 70 73 75
45 44 44 44 44 45 46 46 47 47 48 48 49 49 49 49 49 48 48 50 53 53 53 53 54 54 55 55 56 58 59 61 63 64 67 69 72 74 76 78 78 78 79 80 80 82 84 84 83 80 77 75 74 73 71 69 67 66 66 64 63 62 61 61 61 62 63 65 67 69 68 68 69 71 73 73 73 72 72 72 72 71 70 71 73
40 39 40 41 42 43 44 45 45 46 46 46 46 46 46 45 44 43 43 44 47 48 49 49 51 51 51 51 51 52 54 56 58 59 61 63 66 70 73 75 74 74 75 76 75 76 79 82 82 80 77 74 71 71 71 70 69 69 69 67 64 62 60 60 61 61 62 64 66 67 68 68 69 70 70 71 70 70 69 68 68 67 67 68 69
37 37 39 41 42 42 43 43 44 44 44 43 43 42 41 40 38 38 38 39 41 43 44 45 46 46 46 46 47 48 49 51 54 55 56 58 62 66 69 70 70 71 73 74 74 73 75 78 80 80 78 74 71 70 70 69 70 70 69 67 64 62 60 60 60 61 62 63 64 66 67 67 67 67 67 66 66 65 64 63 63 63 64 66 67
36 36 38 41 41 40 39 39 40 41 41 40 39 37 36 35 33 33 33 35 37 39 40 41 41 41 41 41 43 44 45 47 49 51 52 53 57 61 63 64 66 68 69 72 73 72 73 75 77 78 77 74 73 72 71 70 69 70 69 67 64 62 61 61 61 61 61 62 62 62 61 61 61 60 60 60 60 60 60 61 62 63 65 67 68
34 34 37 40 39 36 35 35 36 35 34 34 33 32 31 30 29 29 29 31 32 34 35 35 35 35 36 37 38 39 41 43 45 47 49 50 53 56 56 58 61 63 65 69 71 71 72 74 76 78 77 76 75 76 75 72 71 71 70 69 67 65 63 62 62 62 61 61 61 60 59 58 58 58 59 60 60 61 62 63 64 65 66 67 68
32 32 35 37 36 32 31 32 31 28 26 25 25 24 24 24 24 24 25 26 28 29 30 30 30 30 31 32 34 35 37 40 42 43 44 46 48 49 50 52 56 59 61 65 67 69 71 74 76 78 78 78 77 78 77 75 72 70 70 71 70 68 67 66 65 64 64 63 63 63 63 62 62 62 62 63 63 64 64 65 65 65 66 66 67
30 30 32 34 33 30 29 28 26 22 21 22 23 23 22 21 20 19 19 20 21 23 25 25 26 26 27 28 30 31 33 34 36 37 39 40 41 42 43 46 50 53 56 59 62 65 67 70 74 77 78 78 78 77 77 75 73 70 69 70 71 71 70 70 69 68 67 67 67 66 66 66 66 66 65 65 65 65 65 65 65 65 66 66 67
29 28 29 30 31 29 28 27 23 19 19 21 23 24 24 24 22 20 19 17 16 16 17 19 20 21 22 24 25 26 27 28 30 31 32 33 34 36 38 41 44 47 50 53 56 59 62 65 70 73 74 75 75 75 74 73 73 72 70 70 71 71 71 70 69 69 69 69 68 68 68 68 68 68 67 66 66 65 65 65 65 65 66 67 67
28 27 27 28 28 27 27 26 23 20 18 19 21 23 24 24 23 22 21 19 17 15 14 13 13 14 16 18 19 21 22 23 25 26 27 28 30 31 34 37 40 43 45 48 51 54 57 62 66 69 71 72 74 74 73 72 72 72 71 69 68 68 68 68 68 67 67 67 68 68 68 68 67 67 66 65 65 64 65 65 65 66 66 66 66
27 27 27 27 26 26 26 25 23 21 19 18 18 20 21 22 23 22 22 20 18 17 15 13 11 10 10 10 12 14 16 18 20 22 24 26 28 30 32 34 37 39 41 44 47 50 53 57 60 64 68 71 72 74 74 74 73 71 69 67 66 66 66 66 66 66 66 66 67 67 66 66 65 64 64 63 63 64 64 64 65 65 65 65 65
32 31 30 28 27 27 26 25 23 21 19 18 17 17 18 20 20 21 21 20 19 17 16 15 13 10 9 7 6 6 8 11 15 18 20 23 25 27 30 32 34 36 38 41 44 46 49 52 56 60 64 68 70 71 72 72 71 69 68 67 66 65 64 64 64 65 65 65 65 65 65 64 63 62 62 62 62 62 62 63 63 63 63 64 63
37 37 37 35 33 31 29 27 25 22 20 17 16 15 15 16 17 18 19 19 18 17 15 14 13 12 11 9 8 6 5 6 9 11 14 17 20 23 26 28 31 33 35 37 40 42 45 49 52 56 60 62 64 65 66 65 64 64 64 64 63 62 61 60 60 61 61 62 62 62 62 61 61 61 60 60 60 60 60 60 61 61 61 61 60
36 37 38 39 39 37 35 32 30 26 23 20 17 16 15 15 15 16 16 17 17 16 15 13 12 11 10 9 9 10 10 11 11 11 13 14 16 19 21 24 26 28 30 32 35 37 40 43 46 49 51 54 55 57 57 57 57 58 58 58 58 57 57 57 57 57 58 59 60 60 61 60 60 59 58 57 57 57 57 58 58 58 58 58 57
35 36 37 38 38 39 38 37 35 32 28 25 21 19 18 17 16 16 16 16 17 16 14 13 11 10 9 8 9 9 11 12 12 9 9 8 9 11 14 17 20 23 26 28 31 32 34 36 39 42 44 44 45 45 46 47 49 50 52 53 54 54 54 55 55 56 57 58 58 58 58 57 56 55 54 54 54 54 55 55 55 55 55 55 56
35 36 37 37 38 38 38 37 37 36 33 30 26 23 21 19 18 17 16 15 14 13 13 12 11 10 9 8 8 7 8 10 10 6 2 2 3 4 6 8 11 14 17 22 27 28 27 27 29 32 34 35 35 36 37 38 40 41 43 45 47 48 49 50 51 52 53 53 52 52 52 52 51 51 51 51 52 52 52 53 53 54 54 55 56
36 37 37 38 38 38 38 38 37 36 34 33 31 27 24 21 19 18 17 15 13 12 10 9 8 7 7 6 6 5 5 6 7 7 5 4 4 6 8 7 7 8 9 12 18 22 24 23 23 24 26 27 30 32 34 35 36 36 37 39 41 42 43 45 45 46 47 47 48 48 49 49 49 49 49 50 51 51 52 53 53 54 54 55 55
37 38 39 39 40 40 39 39 38 36 34 32 31 30 28 24 21 18 16 15 14 13 10 7 5 3 2 2 2 2 4 5 6 7 7 7 6 6 6 6 8 9 10 10 12 16 19 21 23 23 24 26 29 31 33 33 33 33 33 35 36 38 39 40 42 43 44 45 46 46 46 46 46 47 48 50 51 51 51 52 52 52 52 52 52
Wind_Direction
269 268 267 267 267 266 264 261 258 257 257 256 254 255 255 255 256 256 255 253 252 252 252 253 254 255 257 258 259 259 260 260 260 259 259 259 259 258 258 257 257 256 256 256 256 257 257 258 260 261 262 263 263 265 266 267 267 268 269 270 271 271 271 270 269 267 267 267 265 264 264 263 263 263 264 265 265 265 265 265 264 264 263 263 264
274 272 270 268 266 265 263 261 258 256 255 254 254 254 255 256 256 256 254 251 250 251 251 252 253 254 256 257 258 259 261 262 262 263 263 262 262 262 262 261 261 260 260 260 260 260 260 260 261 262 262 263 264 265 265 266 267 268 269 270 270 270 270 270 269 267 266 266 265 264 263 263 263 263 264 265 266 266 266 266 265 264 264 264 265
272 271 270 268 265 262 261 259 258 256 254 253 253 253 253 254 255 255 253 251 249 248 249 251 252 254 255 256 257 258 259 260 261 262 262 262 262 262 262 262 262 263 263 263 263 263 263 263 263 264 264 264 265 265 265 266 267 268 269 270 270 270 269 269 268 267 266 266 265 264 263 263 263 264 264 265 266 266 266 266 266 266 266 267 268
267 267 266 266 264 262 260 258 257 255 254 252 252 251 251 252 253 253 252 250 247 246 246 248 250 252 254 255 257 257 258 258 259 260 260 260 260 260 261 261 261 262 262 263 263 264 264 264 265 265 265 265 265 265 265 266 266 267 268 268 269 269 268 268 267 267 266 266 265 265 264 264 264 264 265 265 266 266 267 267 267 268 269 270 271
264 263 262 263 263 262 261 259 256 254 253 252 251 251 250 251 252 252 251 249 247 246 245 245 246 249 251 253 255 256 257 257 258 258 259 260 260 260 260 260 261 261 261 261 261 262 262 263 263 264 264 264 265 265 266 266 267 268 268 268 268 268 268 268 268 267 267 267 266 266 265 265 265 265 266 266 267 267 268 268 269 270 271 273 274
265 264 263 263 263 263 262 260 257 255 253 251 250 250 250 250 251 252 251 249 247 246 245 245 244 244 246 249 252 254 255 256 257 258 259 259 259 260 260 260 261 261 260 260 259 260 260 260 261 262 263 264 265 267 267 268 268 269 269 268 267 266 267 269 270 269 269 268 267 267 267 267 267 267 268 268 268 269 269 269 270 271 273 274 275
268 267 265 264 264 264 263 261 259 257 255 254 252 250 248 247 248 249 250 249 248 247 246 245 245 244 244 246 248 250 251 253 255 257 258 258 259 259 260 260 260 259 259 258 258 258 259 260 261 262 264 265 266 267 267 268 268 268 269 268 267 265 266 268 270 271 270 269 268 268 268 269 269 269 269 269 269 270 270 270 270 271 272 273 274
270 268 265 263 263 263 263 263 262 260 259 258 257 256 253 250 248 248 248 248 247 246 246 245 246 246 247 248 249 249 250 251 253 255 256 257 258 259 259 259 258 257 257 257 257 257 259 260 261 263 265 266 266 267 267 268 268 269 270 269 267 267 266 267 270 272 272 271 270 269 269 269 270 270 270 270 270 270 270 270 271 271 272 272 273
273 271 269 267 265 263 262 262 262 262 261 261 261 261 261 259 257 255 253 252 250 248 247 245 245 246 247 249 251 252 252 253 253 254 255 256 257 258 258 257 256 255 255 255 256 257 259 261 262 264 265 265 266 267 267 268 268 270 271 270 268 268 268 267 268 270 272 272 271 270 269 269 270 271 271 272 272 272 272 272 272 272 272 272 273
275 274 273 271 269 267 265 264 262 262 261 261 261 262 263 263 262 261 260 259 258 256 254 252 251 250 250 250 252 253 255 255 255 255 255 256 256 256 256 256 255 255 255 255 256 257 260 262 263 264 264 264 264 265 266 267 268 269 270 270 268 268 268 267 267 268 270 271 271 270 270 270 271 272 272 273 273 273 273 273 273 273 272 272 272
274 274 273 273 272 270 269 267 265 263 262 261 260 261 261 262 262 263 263 262 262 261 261 260 259 259 258 256 255 255 256 257 257 257 257 257 256 256 255 255 255 256 257 257 258 258 260 261 262 263 264 265 265 265 265 266 267 268 268 267 266 266 267 267 266 268 270 271 270 270 270 270 271 272 272 273 273 273 273 273 273 273 273 272 272
273 273 272 272 272 272 270 269 268 266 264 263 261 260 260 259 259 260 261 262 262 262 262 262 262 263 262 261 260 260 260 260 259 258 258 257 257 257 256 256 256 257 258 259 259 260 260 261 262 263 264 266 266 266 266 265 266 267 266 264 263 264 265 266 266 267 269 270 271 270 270 270 270 271 272 272 272 272 272 271 272 272 272 272 271
272 272 272 271 271 271 271 270 269 268 267 266 264 263 262 260 259 258 259 260 261 262 262 261 261 262 262 262 262 262 262 262 261 260 259 258 257 257 257 258 258 259 259 259 260 261 261 262 262 263 264 265 265 265 265 265 265 266 264 261 261 263 264 265 266 267 269 270 271 271 270 270 270 271 271 271 272 271 270 269 269 270 271 271 271
271 271 271 270 270 270 270 270 269 268 268 267 267 266 266 264 263 261 259 258 258 259 260 260 261 261 261 261 261 261 261 262 261 260 260 259 258 257 258 258 259 260 260 260 261 261 262 262 262 263 263 264 264 264 263 262 263 264 262 260 261 261 262 264 265 267 268 270 270 271 270 270 270 270 270 271 271 270 268 266 265 266 268 268 269
271 270 270 269 269 269 269 269 268 268 267 267 267 267 267 267 266 264 263 261 259 258 258 258 259 260 261 262 262 261 261 260 259 258 257 257 257 257 257 258 259 259 260 260 261 261 262 263 263 263 263 262 261 261 260 260 260 261 260 260 260 260 261 262 264 266 267 268 269 269 268 268 269 270 271 271 270 267 265 264 263 264 265 267 268
273 272 270 269 269 269 269 268 268 267 267 266 266 266 266 266 266 265 265 263 262 261 259 258 258 258 259 260 261 262 261 260 257 256 255 255 255 255 255 256 257 258 259 260 260 260 261 262 262 263 263 262 261 260 259 258 258 259 260 261 261 261 261 263 264 265 266 267 268 269 267 266 267 269 270 270 268 265 263 262 263 263 264 265 267
276 275 273 272 271 270 269 269 268 268 267 266 265 264 264 264 264 263 263 263 263 262 262 261 260 259 258 259 260 260 260 259 256 255 254 253 253 254 254 254 255 256 258 259 259 259 260 260 260 261 261 261 261 260 260 259 258 258 259 260 261 262 262 263 264 265 265 266 268 268 266 265 266 268 269 269 267 265 263 262 263 263 263 265 267
276 275 275 274 273 272 272 271 270 269 269 268 267 265 264 263 262 261 261 261 260 261 261 261 261 260 259 258 258 258 258 257 256 254 253 253 253 253 253 253 253 254 256 257 258 258 258 258 258 259 259 260 260 260 260 259 258 257 257 257 259 260 261 263 264 265 265 266 267 268 266 264 265 267 268 268 266 265 263 263 264 264 264 265 266
276 275 274 274 273 273 273 272 272 271 271 270 269 268 267 265 263 262 260 259 258 258 258 259 260 260 260 258 257 256 255 254 254 254 253 253 253 252 252 253 253 253 253 254 255 256 256 256 257 258 259 259 259 259 258 257 256 255 255 255 256 258 260 263 264 264 264 264 265 267 266 264 264 266 267 266 266 265 264 263 263 264 265 266 267
277 276 275 274 274 273 273 272 272 272 271 271 271 270 269 268 266 264 262 260 258 257 256 256 256 257 259 260 259 257 254 253 252 252 252 252 253 253 252 252 253 253 252 252 252 253 253 254 256 258 258 259 258 257 255 254 253 254 254 254 255 257 259 262 263 263 263 263 264 266 266 265 264 265 265 265 265 264 264 264 264 264 265 267 268
278 277 277 276 275 274 273 273 272 272 271 271 270 270 269 269 268 267 265 263 261 259 257 256 255 254 255 258 260 260 258 255 253 252 252 251 252 253 252 251 251 252 253 253 253 253 253 253 253 254 255 256 255 254 253 252 252 253 254 255 255 256 257 260 262 262 262 263 265 265 266 266 265 265 265 265 265 265 265 264 264 265 266 267 267
280 279 278 277 276 275 274 273 272 271 271 270 270 269 269 268 268 267 267 266 264 263 260 258 257 255 253 255 258 260 260 258 255 254 253 253 253 253 253 252 251 251 252 253 254 254 254 253 252 252 252 253 253 252 251 252 252 254 255 256 256 256 257 259 260 261 262 264 265 266 267 266 264 263 264 265 265 266 265 265 265 265 266 266 267
282 281 280 279 278 276 275 274 273 272 271 270 269 269 268 268 268 267 267 266 266 265 264 262 260 258 256 254 256 258 258 257 255 254 254 254 253 252 253 253 251 250 250 250 251 253 253 253 253 253 253 253 253 253 253 253 254 255 256 257 257 258 258 257 258 260 262 263 264 265 266 264 262 263 264 265 265 266 266 266 266 265 266 267 267
282 281 280 279 278 277 276 275 274 273 271 270 269 269 268 267 267 266 266 266 265 265 265 264 263 261 259 256 255 255 255 254 254 253 253 252 251 250 250 251 251 250 249 248 249 250 251 252 252 252 252 253 254 254 254 255 256 257 258 258 258 257 257 257 258 259 260 261 262 263 264 264 264 265 265 264 264 265 265 266 266 267 267 268 269
282 282 281 280 279 278 277 276 275 274 273 271 270 269 268 267 266 265 265 265 264 264 264 264 263 262 261 259 256 254 253 251 250 250 250 250 249 248 248 248 248 249 249 248 248 249 249 250 250 249 249 251 252 254 255 255 257 257 257 258 258 257 257 257 258 258 259 260 262 262 262 263 264 265 263 263 263 264 265 266 267 268 268 269 270
283 282 282 281 280 279 278 276 275 274 273 272 271 270 269 268 266 265 265 264 264 263 263 262 262 262 261 260 258 256 253 250 248 247 247 249 250 250 248 247 246 247 247 248 247 248 248 248 248 248 248 249 250 253 255 256 256 256 256 256 256 256 255 256 257 258 259 260 260 260 260 262 263 262 261 262 263 264 265 265 266 266 267 269 270
285 284 283 282 281 280 279 277 276 275 274 273 272 271 270 269 267 266 265 265 264 263 262 262 261 260 260 260 258 257 255 252 248 246 246 247 248 249 250 249 248 247 246 246 246 247 246 245 245 245 246 247 248 249 252 253 254 254 255 255 256 256 256 257 258 257 257 257 257 258 259 261 262 261 261 262 263 264 264 265 265 266 267 269 268
286 285 285 284 283 282 281 280 279 278 277 275 274 273 272 271 269 268 267 266 265 264 263 262 261 260 259 258 258 256 255 253 251 248 246 245 246 247 249 250 250 250 249 246 245 245 246 246 244 244 245 245 246 246 247 249 251 252 253 254 255 255 256 256 255 253 253 255 256 257 259 260 260 260 260 261 262 263 264 265 265 266 268 268 265
288 288 288 287 286 285 284 284 283 281 280 278 277 275 274 273 271 270 269 268 267 266 264 263 262 261 260 258 257 256 254 253 252 250 248 246 245 246 247 249 250 251 251 249 245 243 244 245 245 244 244 244 244 244 245 247 249 250 251 251 251 252 253 252 251 251 252 254 255 257 258 259 259 259 259 260 262 263 264 264 265 267 267 264 259
292 292 291 290 289 288 287 286 285 284 283 282 280 278 277 276 275 273 271 269 268 267 266 265 263 262 260 259 257 256 254 252 251 250 249 248 247 247 247 248 249 250 250 250 246 243 243 245 245 243 243 243 243 243 244 246 247 248 248 248 248 248 249 249 249 250 251 253 255 257 258 258 258 259 260 261 262 263 263 264 265 265 262 258 255
294 293 292 290 289 289 288 287 286 285 284 283 281 280 278 277 276 276 275 272 270 269 267 266 265 263 262 260 258 256 254 252 250 249 248 248 248 248 248 248 248 248 248 248 246 243 244 246 247 246 245 244 244 245 246 247 247 246 246 246 246 246 248 248 248 249 250 252 255 256 257 258 259 260 261 262 262 263 263 262 261 259 256 254 254
297 296 294 292 290 289 288 287 285 284 283 281 280 279 278 276 275 274 274 273 272 271 269 267 265 264 262 261 259 257 255 253 250 248 247 246 246 247 247 247 247 247 247 246 245 243 244 247 250 250 249 248 248 248 249 249 249 248 246 245 245 246 248 249 249 250 251 253 255 257 258 259 260 260 261 261 261 261 260 258 256 254 253 252 254
303 302 299 297 295 293 291 289 288 286 284 282 281 280 278 277 275 273 271 270 270 271 270 269 266 264 262 261 259 257 255 253 250 248 246 245 244 244 245 245 245 245 245 245 244 242 243 246 249 251 252 252 251 251 251 250 250 249 248 247 246 246 248 250 251 252 253 254 257 259 260 261 261 262 261 261 260 260 258 255 253 252 252 251 253
309 307 305 302 300 298 296 293 291 289 287 285 284 283 282 281 279 276 272 269 267 267 268 269 268 265 263 261 259 257 254 252 250 248 246 244 242 242 243 243 242 243 243 244 243 241 241 244 248 249 251 252 253 254 253 252 251 251 251 250 249 248 249 251 253 255 256 257 258 258 258 259 260 260 260 260 260 260 259 256 253 252 251 251 252
315 313 311 310 308 305 302 299 296 294 292 290 289 288 286 284 281 278 275 270 266 264 264 266 268 267 264 261 259 257 254 251 249 247 245 243 241 240 240 241 240 241 242 243 242 240 240 242 245 246 247 249 252 254 255 254 253 253 255 255 254 253 253 253 255 257 259 259 258 257 256 256 257 258 258 259 259 259 259 257 255 253 252 251 253
319 319 318 317 314 310 306 303 300 298 296 295 293 291 289 286 282 279 276 272 267 262 261 263 266 267 266 263 259 256 253 251 248 246 244 242 240 239 239 239 239 239 240 240 240 239 238 239 241 243 243 244 247 250 253 254 255 255 256 257 257 257 256 256 257 258 259 259 258 257 256 256 256 257 257 257 257 256 256 255 254 253 252 252 255
321 321 322 321 318 314 310 307 305 304 302 301 300 297 293 290 286 282 277 272 266 262 261 263 265 267 266 264 260 256 252 249 247 245 242 240 239 238 238 238 238 237 237 238 237 236 235 236 237 239 240 241 242 244 246 249 251 252 254 254 254 254 254 255 256 257 258 258 258 257 257 257 256 255 254 254 253 252 251 251 251 251 253 256 260
322 324 326 326 322 318 314 312 311 309 307 305 303 300 297 294 290 285 279 273 267 264 263 264 266 266 264 262 259 255 251 247 245 243 240 238 238 238 237 238 237 236 236 236 235 234 233 233 233 235 236 237 238 240 241 242 243 245 247 249 249 249 250 251 253 254 254 254 254 254 254 254 254 253 253 252 251 250 251 251 253 255 258 261 264
325 327 331 332 328 323 319 319 317 315 313 310 307 304 300 296 292 286 280 275 271 268 267 267 267 265 262 260 257 254 250 246 244 242 239 238 238 237 236 236 237 235 234 234 234 233 232 231 231 232 233 234 235 237 239 238 238 239 241 243 245 247 248 249 249 249 249 249 249 250 250 251 252 252 252 252 253 254 255 256 258 259 261 264 265
329 332 337 339 335 330 328 328 328 328 329 330 327 323 317 310 302 295 287 280 276 273 271 270 267 264 261 259 256 253 250 247 245 243 241 240 239 238 236 236 236 236 234 234 234 232 231 230 230 230 232 233 235 236 238 237 237 237 238 240 243 245 246 247 247 246 246 247 247 248 249 251 252 253 254 255 256 258 259 260 261 262 264 265 266
333 335 340 345 344 341 338 338 338 343 352 356 354 351 348 342 333 322 309 297 287 281 276 273 269 265 260 257 255 253 252 250 248 246 244 242 241 239 237 236 237 237 236 235 234 233 231 230 229 229 230 232 234 236 237 238 238 238 238 239 241 243 244 245 245 245 246 247 248 249 251 252 254 256 257 258 259 260 261 262 263 264 265 266 267
339 337 339 345 349 351 350 348 346 350 360 4 1 359 359 358 354 349 342 331 317 304 292 283 276 270 264 259 255 253 252 250 249 247 245 243 240 237 235 235 236 236 236 235 234 233 232 230 229 228 229 231 233 235 236 237 238 239 239 239 240 242 243 244 245 246 248 249 250 251 252 254 256 257 259 260 261 262 263 263 264 265 265 266 267
342 342 342 344 348 352 356 357 355 355 359 1 358 356 357 360 1 360 357 352 347 339 328 313 298 284 273 265 259 254 250 248 247 245 244 242 239 236 233 233 233 234 234 234 233 232 231 230 229 228 228 230 232 234 236 237 238 239 240 240 241 242 244 245 247 249 251 252 253 254 254 256 257 259 260 261 262 263 263 264 264 264 265 265 266
352 349 346 345 347 349 353 357 359 359 359 0 358 354 353 355 358 2 3 3 1 359 355 348 336 319 301 285 272 262 254 249 246 244 243 241 238 236 234 233 233 233 233 233 232 231 230 230 229 229 229 230 231 233 236 238 239 240 241 242 242 243 244 246 248 250 251 252 254 255 257 258 259 259 260 261 261 262 262 262 263 263 264 265 266
14 9 3 357 353 350 350 352 354 356 358 360 0 360 357 354 353 355 359 2 4 6 7 8 7 1 352 338 314 286 266 255 249 246 244 242 240 238 236 235 233 232 232 231 231 230 230 229 228 228 229 230 232 234 236 238 240 242 243 244 244 245 246 247 249 251 252 253 254 255 256 257 258 259 259 260 261 261 261 262 262 263 264 265 265
22 21 19 16 11 6 360 355 352 351 352 352 354 357 358 356 352 350 349 350 353 357 1 6 11 15 16 12 2 349 324 291 271 257 249 244 241 238 236 235 233 232 232 231 230 230 229 229 229 229 230 231 232 233 235 237 239 242 244 245 247 248 249 250 251 252 252 253 253 254 254 256 257 258 258 259 259 260 260 261 262 263 263 264 265
19 20 20 20 19 18 14 9 3 357 352 348 346 344 343 342 343 342 341 340 339 339 341 345 350 356 1 360 354 347 338 326 309 287 270 260 253 248 243 239 236 234 232 232 231 231 230 230 230 230 230 231 232 233 234 235 236 238 241 243 245 247 247 248 248 248 249 249 250 251 253 254 255 256 257 257 258 259 260 260 261 262 264 265 266
14 15 16 16 17 17 17 16 13 9 2 355 348 343 340 337 334 331 329 328 329 329 327 326 327 329 330 330 328 329 336 339 331 305 277 270 272 267 258 251 245 242 239 238 236 233 231 230 229 227 227 227 228 230 232 234 235 236 238 241 242 243 244 245 245 246 246 247 248 250 251 253 254 255 255 256 257 258 259 261 262 264 265 266 268
8 10 11 12 12 13 13 13 14 13 11 7 360 352 345 341 338 336 332 328 327 328 326 322 321 319 316 314 314 318 335 352 358 356 358 30 10 331 295 268 252 246 243 241 236 230 225 224 225 225 223 223 225 229 233 236 237 238 238 239 240 241 242 243 244 244 245 246 248 249 250 252 252 254 255 256 257 259 260 262 263 264 266 267 268
4 5 5 6 7 7 8 8 9 9 10 10 8 4 357 348 342 341 341 340 336 332 327 322 322 322 316 310 309 308 313 326 334 336 336 336 322 306 295 279 257 243 236 234 229 223 218 215 216 218 221 225 228 232 235 237 238 238 238 239 240 241 242 243 244 244 246 247 248 249 250 251 252 254 256 257 259 260 261 262 263 264 266 267 269
0 1 1 1 2 2 2 3 3 4 4 5 6 7 5 0 351 342 340 342 343 340 333 321 310 311 314 303 300 300 290 284 286 293 298 297 291 284 277 264 245 231 221 217 215 216 218 219 219 220 224 228 231 233 235 236 237 238 239 240 241 242 243 244 245 246 247 248 248 249 250 252 254 256 257 258 259 260 261 262 263 265 266 269 271
Height
5634 5634 5634 5634 5633 5633 5633 5633 5633 5633 5633 5633 5633 5633 5632 5631 5631 5630 5631 5630 5630 5630 5631 5631 5631 5632 5633 5633 5634 5634 5634 5635 5635 5635 5635 5636 5636 5636 5636 5636 5637 5638 5639 5639 5640 5640 5641 5642 5642 5643 5643 5643 5643 5644 5645 5645 5645 5646 5646 5646 5645 5645 5644 5645 5646 5648 5647 5647 5647 5648 5649 5649 5650 5651 5651 5652 5652 5652 5653 5653 5653 5654 5655 5655 5656
5622 5622 5623 5623 5623 5622 5622 5623 5623 5622 5622 5622 5622 5622 5622 5621 5621 5621 5621 5620 5620 5621 5621 5621 5621 5622 5623 5624 5624 5625 5625 5626 5626 5626 5627 5628 5628 5628 5628 5629 5629 5630 5631 5631 5632 5632 5632 5633 5634 5634 5633 5634 5634 5635 5636 5636 5637 5637 5638 5637 5637 5637 5636 5636 5637 5639 5639 5638 5639 5640 5641 5641 5642 5643 5643 5644 5644 5645 5645 5645 5645 5646 5646 5647 5648
5612 5611 5612 5612 5612 5612 5612 5612 5612 5612 5612 5612 5611 5611 5611 5611 5610 5610 5610 5610 5610 5611 5611 5612 5612 5612 5613 5614 5614 5615 5616 5616 5617 5617 5618 5618 5619 5619 5619 5620 5620 5621 5622 5623 5623 5622 5623 5624 5624 5625 5624 5624 5625 5626 5627 5628 5628 5629 5629 5628 5628 5628 5628 5627 5628 5630 5631 5630 5630 5631 5632 5633 5634 5635 5635 5636 5636 5637 5637 5637 5636 5637 5638 5639 5640
5602 5601 5601 5601 5601 5602 5602 5601 5601 5601 5601 5601 5600 5600 5600 5600 5599 5599 5599 5599 5599 5599 5600 5602 5602 5603 5603 5604 5604 5604 5605 5606 5606 5607 5608 5608 5609 5609 5610 5610 5611 5612 5613 5614 5613 5613 5613 5614 5615 5616 5615 5614 5616 5617 5618 5619 5619 5619 5620 5619 5619 5619 5619 5619 5619 5621 5622 5622 5622 5623 5624 5625 5626 5627 5627 5628 5628 5628 5628 5628 5628 5628 5628 5629 5630
5590 5590 5590 5589 5589 5590 5590 5590 5590 5589 5589 5589 5589 5589 5589 5589 5588 5588 5588 5587 5587 5588 5588 5589 5591 5592 5593 5593 5593 5594 5594 5595 5595 5596 5597 5597 5598 5599 5599 5600 5601 5602 5603 5604 5604 5604 5604 5606 5607 5606 5605 5605 5607 5609 5609 5610 5609 5610 5610 5610 5610 5610 5610 5610 5611 5613 5614 5614 5614 5614 5615 5616 5617 5618 5619 5619 5619 5619 5619 5619 5619 5618 5619 5619 5620
5577 5577 5578 5577 5577 5577 5577 5578 5578 5577 5577 5577 5577 5577 5577 5577 5577 5576 5576 5576 5576 5576 5576 5577 5578 5579 5580 5581 5582 5583 5584 5584 5585 5586 5586 5586 5587 5587 5588 5589 5590 5591 5593 5593 5594 5594 5595 5596 5597 5596 5596 5597 5599 5600 5600 5600 5600 5600 5600 5601 5601 5601 5601 5602 5603 5604 5606 5607 5606 5606 5607 5608 5609 5610 5610 5610 5610 5610 5610 5610 5610 5609 5609 5609 5610
5565 5565 5565 5565 5565 5565 5564 5564 5564 5565 5565 5564 5564 5564 5564 5564 5564 5564 5564 5565 5565 5565 5565 5565 5565 5566 5567 5568 5570 5571 5572 5573 5574 5574 5575 5575 5575 5576 5576 5577 5578 5579 5581 5582 5583 5583 5585 5586 5587 5587 5588 5590 5591 5591 5591 5591 5590 5590 5591 5591 5591 5591 5592 5593 5594 5595 5596 5598 5598 5598 5598 5599 5599 5601 5601 5601 5601 5602 5601 5601 5600 5600 5599 5599 5601
5548 5550 5551 5551 5552 5552 5551 5551 5551 5551 5551 5551 5550 5550 5550 5551 5551 5551 5551 5552 5552 5553 5553 5554 5554 5555 5556 5557 5558 5559 5560 5561 5562 5563 5563 5563 5563 5564 5564 5565 5566 5567 5569 5570 5571 5572 5574 5575 5577 5578 5579 5581 5582 5582 5581 5581 5581 5581 5582 5582 5581 5582 5583 5584 5585 5585 5586 5588 5589 5590 5590 5590 5590 5592 5592 5592 5591 5592 5592 5591 5591 5592 5590 5589 5591
5531 5532 5534 5535 5537 5538 5538 5538 5538 5537 5537 5537 5537 5536 5536 5536 5536 5537 5537 5537 5538 5539 5540 5541 5542 5543 5544 5545 5546 5548 5549 5550 5550 5550 5550 5551 5551 5552 5551 5552 5553 5555 5557 5559 5559 5560 5562 5564 5566 5569 5570 5571 5571 5571 5571 5571 5571 5572 5572 5572 5572 5572 5573 5574 5575 5576 5577 5578 5579 5580 5581 5581 5581 5582 5583 5582 5582 5582 5582 5581 5582 5582 5581 5579 5580
5517 5517 5517 5518 5520 5521 5522 5523 5524 5524 5523 5524 5523 5523 5523 5522 5522 5522 5522 5522 5523 5523 5524 5525 5527 5528 5530 5531 5533 5534 5537 5538 5538 5537 5538 5538 5538 5539 5539 5539 5540 5542 5544 5547 5548 5549 5551 5552 5555 5558 5558 5560 5561 5561 5561 5562 5562 5562 5563 5563 5563 5563 5564 5564 5566 5567 5568 5569 5570 5570 5571 5572 5572 5572 5572 5572 5571 5571 5572 5572 5571 5572 5572 5569 5569
5504 5503 5503 5503 5503 5504 5505 5506 5507 5508 5508 5508 5508 5509 5508 5508 5508 5507 5507 5507 5508 5508 5509 5509 5510 5511 5513 5516 5518 5519 5522 5524 5524 5524 5526 5526 5525 5526 5526 5527 5528 5529 5532 5535 5536 5538 5539 5541 5544 5546 5546 5548 5550 5551 5552 5552 5553 5553 5553 5553 5553 5553 5554 5555 5556 5557 5558 5559 5560 5560 5561 5562 5562 5561 5562 5562 5562 5562 5562 5562 5561 5562 5562 5560 5559
5491 5490 5489 5488 5488 5488 5489 5490 5491 5491 5491 5492 5492 5493 5493 5493 5493 5493 5493 5493 5493 5494 5495 5495 5496 5496 5497 5500 5502 5504 5507 5509 5508 5510 5512 5512 5512 5513 5513 5514 5515 5518 5521 5523 5525 5526 5528 5530 5533 5535 5536 5538 5539 5540 5541 5542 5543 5543 5543 5543 5543 5543 5544 5545 5546 5547 5548 5549 5550 5551 5552 5552 5552 5552 5552 5552 5552 5552 5552 5552 5552 5552 5553 5551 5550
5476 5475 5474 5474 5473 5472 5472 5473 5474 5474 5474 5474 5475 5476 5477 5477 5477 5477 5477 5478 5478 5478 5479 5480 5482 5483 5483 5486 5488 5490 5493 5493 5493 5495 5497 5498 5498 5499 5499 5501 5503 5506 5509 5511 5513 5515 5517 5519 5522 5525 5527 5527 5527 5529 5531 5531 5532 5532 5532 5532 5532 5533 5534 5535 5536 5537 5538 5539 5539 5541 5541 5541 5541 5542 5542 5542 5542 5543 5543 5543 5544 5543 5543 5541 5540
5463 5461 5459 5458 5457 5457 5456 5456 5457 5457 5457 5457 5457 5458 5459 5460 5460 5459 5460 5462 5463 5463 5464 5464 5465 5467 5468 5471 5473 5477 5480 5479 5478 5480 5482 5483 5484 5484 5485 5487 5490 5493 5497 5499 5501 5503 5506 5508 5510 5513 5516 5516 5516 5518 5520 5520 5520 5521 5521 5521 5522 5522 5523 5524 5526 5527 5528 5529 5529 5530 5530 5530 5530 5531 5532 5532 5533 5534 5534 5534 5534 5534 5533 5531 5530
5449 5446 5445 5443 5442 5440 5439 5439 5439 5440 5440 5440 5440 5440 5441 5441 5442 5441 5441 5443 5445 5447 5449 5449 5450 5451 5452 5454 5457 5462 5466 5466 5465 5466 5467 5469 5469 5470 5471 5473 5476 5479 5483 5486 5489 5492 5494 5496 5498 5501 5503 5505 5506 5507 5509 5509 5509 5509 5509 5510 5511 5512 5512 5514 5516 5517 5518 5519 5519 5519 5519 5519 5519 5521 5523 5524 5524 5524 5524 5524 5524 5524 5523 5521 5521
5433 5430 5428 5428 5427 5425 5423 5422 5421 5421 5421 5421 5422 5423 5423 5423 5424 5423 5423 5425 5426 5428 5431 5433 5434 5436 5437 5438 5440 5445 5450 5452 5451 5452 5453 5454 5455 5456 5458 5461 5463 5466 5470 5473 5476 5479 5481 5483 5485 5488 5490 5493 5495 5495 5497 5498 5497 5496 5498 5498 5499 5501 5503 5505 5507 5507 5508 5509 5509 5509 5509 5508 5509 5511 5513 5514 5514 5514 5515 5514 5513 5513 5512 5511 5511
5416 5413 5412 5412 5411 5409 5407 5405 5404 5403 5402 5402 5403 5404 5405 5406 5406 5406 5406 5407 5408 5409 5411 5414 5417 5419 5421 5423 5424 5428 5434 5437 5437 5437 5439 5439 5440 5442 5444 5447 5450 5454 5457 5460 5462 5465 5468 5470 5472 5475 5478 5480 5482 5483 5484 5485 5484 5485 5487 5488 5489 5491 5493 5495 5496 5497 5498 5498 5498 5498 5498 5498 5499 5500 5502 5502 5503 5505 5505 5503 5503 5502 5501 5501 5501
5401 5398 5397 5396 5395 5393 5391 5389 5387 5386 5384 5384 5384 5385 5386 5387 5388 5388 5388 5390 5392 5392 5393 5394 5398 5402 5405 5407 5409 5412 5417 5421 5422 5422 5424 5425 5424 5427 5430 5432 5437 5441 5445 5447 5448 5451 5455 5457 5458 5461 5465 5467 5469 5469 5470 5472 5472 5473 5475 5477 5478 5481 5484 5485 5485 5487 5488 5488 5487 5487 5487 5488 5489 5490 5491 5491 5493 5495 5494 5493 5492 5491 5491 5492 5491
5386 5384 5383 5382 5380 5378 5376 5373 5371 5370 5368 5367 5366 5366 5367 5368 5369 5370 5370 5372 5374 5376 5376 5377 5380 5385 5387 5390 5393 5396 5400 5405 5406 5406 5409 5410 5410 5412 5415 5418 5423 5428 5431 5433 5434 5437 5441 5443 5444 5448 5451 5453 5454 5455 5457 5459 5460 5461 5463 5465 5467 5472 5475 5474 5473 5476 5477 5476 5476 5476 5476 5478 5479 5480 5480 5480 5482 5485 5484 5481 5481 5481 5481 5482 5481
5371 5370 5369 5367 5366 5364 5362 5359 5357 5355 5352 5351 5350 5349 5350 5350 5350 5351 5352 5353 5355 5358 5360 5361 5364 5369 5371 5372 5375 5379 5384 5389 5391 5391 5392 5394 5395 5397 5400 5403 5409 5413 5415 5417 5420 5423 5426 5429 5432 5435 5437 5439 5441 5442 5443 5446 5448 5449 5450 5453 5458 5463 5463 5461 5462 5464 5465 5464 5464 5465 5465 5467 5469 5470 5470 5468 5471 5474 5473 5470 5471 5471 5471 5471 5471
5357 5355 5354 5353 5351 5349 5347 5344 5342 5340 5338 5335 5333 5334 5334 5333 5333 5333 5333 5334 5336 5338 5341 5344 5346 5352 5357 5358 5359 5362 5367 5371 5375 5376 5377 5379 5380 5381 5384 5389 5394 5396 5398 5402 5405 5409 5413 5416 5419 5422 5423 5424 5427 5428 5430 5434 5435 5437 5439 5443 5448 5450 5449 5450 5451 5452 5452 5453 5453 5454 5456 5457 5459 5460 5459 5458 5460 5463 5462 5460 5461 5461 5461 5461 5461
5341 5339 5338 5337 5335 5333 5330 5328 5326 5324 5322 5319 5317 5318 5319 5317 5316 5316 5316 5316 5317 5319 5322 5325 5327 5332 5339 5343 5344 5347 5350 5354 5357 5360 5362 5363 5365 5366 5369 5375 5379 5379 5382 5388 5392 5396 5400 5403 5406 5409 5409 5411 5414 5415 5417 5420 5421 5425 5429 5432 5435 5436 5437 5439 5439 5439 5441 5442 5443 5445 5446 5447 5448 5449 5449 5448 5449 5450 5450 5450 5451 5450 5450 5450 5450
5324 5322 5321 5319 5317 5315 5313 5311 5309 5307 5305 5303 5300 5301 5303 5301 5299 5299 5299 5298 5299 5300 5303 5307 5309 5312 5319 5325 5329 5332 5335 5337 5341 5344 5346 5348 5350 5351 5354 5360 5363 5364 5368 5374 5378 5381 5386 5389 5393 5395 5396 5398 5401 5402 5404 5405 5408 5414 5418 5419 5421 5424 5426 5426 5427 5428 5430 5432 5434 5435 5436 5436 5437 5438 5438 5437 5437 5437 5438 5440 5440 5439 5440 5440 5439
5306 5305 5304 5301 5299 5297 5295 5292 5291 5289 5288 5286 5283 5283 5286 5285 5283 5282 5282 5281 5281 5282 5286 5289 5290 5293 5298 5305 5311 5317 5320 5322 5325 5328 5331 5333 5336 5338 5340 5344 5347 5349 5353 5359 5364 5367 5372 5376 5379 5381 5383 5385 5388 5390 5391 5393 5397 5403 5406 5407 5409 5412 5414 5415 5416 5418 5420 5422 5424 5425 5426 5426 5426 5426 5426 5426 5425 5426 5427 5429 5429 5429 5429 5429 5429
5290 5288 5286 5283 5281 5280 5277 5275 5274 5272 5270 5268 5266 5266 5268 5267 5265 5265 5265 5264 5264 5266 5268 5271 5272 5274 5278 5285 5292 5299 5304 5307 5309 5312 5316 5319 5322 5325 5327 5329 5331 5334 5338 5345 5349 5353 5358 5362 5364 5367 5370 5373 5375 5377 5380 5383 5387 5391 5395 5397 5397 5399 5403 5405 5406 5408 5410 5412 5413 5414 5414 5415 5414 5413 5414 5413 5414 5416 5417 5418 5418 5419 5419 5419 5417
5273 5272 5270 5267 5265 5262 5259 5257 5256 5254 5253 5250 5248 5248 5249 5248 5248 5248 5248 5247 5248 5249 5250 5252 5254 5256 5259 5266 5274 5281 5286 5290 5293 5297 5301 5305 5309 5312 5313 5314 5316 5319 5324 5331 5336 5340 5345 5348 5350 5353 5357 5360 5363 5366 5369 5373 5375 5377 5383 5386 5386 5388 5393 5395 5395 5397 5400 5401 5401 5402 5402 5403 5402 5401 5402 5402 5403 5406 5406 5406 5407 5408 5408 5407 5406
5257 5255 5253 5251 5248 5245 5242 5239 5238 5237 5236 5234 5232 5231 5231 5230 5229 5230 5231 5231 5231 5231 5232 5234 5236 5238 5242 5248 5255 5262 5267 5272 5277 5283 5287 5291 5295 5296 5295 5298 5303 5307 5311 5318 5324 5327 5331 5335 5337 5340 5344 5347 5350 5354 5358 5362 5363 5365 5372 5376 5376 5378 5383 5384 5384 5386 5388 5388 5388 5390 5391 5391 5391 5390 5392 5393 5394 5394 5395 5395 5396 5396 5396 5395 5394
5242 5240 5238 5235 5232 5229 5226 5224 5222 5220 5220 5219 5217 5216 5215 5214 5212 5213 5215 5215 5213 5214 5215 5216 5218 5222 5225 5230 5236 5242 5248 5255 5263 5269 5272 5274 5277 5278 5279 5284 5291 5295 5299 5305 5311 5314 5317 5320 5323 5327 5331 5335 5338 5342 5346 5349 5351 5355 5361 5365 5366 5368 5371 5371 5371 5374 5375 5375 5377 5378 5380 5380 5380 5380 5382 5383 5383 5383 5384 5384 5384 5384 5384 5384 5383
5230 5227 5224 5221 5218 5215 5212 5210 5208 5206 5205 5205 5203 5202 5201 5199 5196 5197 5200 5199 5197 5197 5198 5200 5204 5207 5208 5212 5217 5223 5231 5241 5248 5251 5254 5256 5259 5262 5267 5272 5277 5281 5285 5290 5296 5302 5304 5306 5311 5316 5321 5324 5327 5331 5334 5337 5340 5344 5349 5352 5355 5358 5359 5359 5360 5362 5364 5364 5365 5367 5368 5368 5368 5370 5372 5372 5372 5373 5373 5373 5373 5373 5373 5373 5373
5220 5217 5213 5209 5206 5202 5200 5198 5196 5194 5192 5192 5190 5189 5189 5186 5183 5183 5185 5185 5183 5181 5181 5185 5190 5192 5192 5195 5201 5206 5214 5225 5231 5232 5236 5241 5244 5248 5253 5258 5261 5266 5270 5274 5281 5289 5293 5296 5300 5306 5310 5313 5316 5320 5322 5324 5327 5332 5336 5340 5343 5346 5347 5347 5348 5350 5352 5353 5354 5355 5356 5357 5358 5360 5361 5361 5361 5362 5362 5361 5361 5361 5362 5362 5363
5209 5206 5202 5198 5195 5192 5189 5188 5185 5183 5181 5180 5178 5178 5178 5177 5174 5172 5172 5171 5169 5168 5168 5171 5174 5176 5177 5180 5186 5191 5198 5207 5213 5216 5220 5225 5228 5232 5238 5242 5246 5251 5255 5259 5267 5277 5284 5286 5290 5295 5298 5302 5305 5308 5311 5312 5315 5319 5323 5327 5331 5334 5334 5334 5336 5338 5339 5340 5341 5343 5345 5347 5348 5349 5350 5350 5351 5351 5351 5351 5350 5350 5351 5352 5353
5198 5195 5191 5188 5185 5182 5179 5177 5175 5172 5170 5169 5167 5166 5166 5166 5165 5163 5160 5158 5157 5157 5157 5158 5160 5162 5163 5165 5170 5176 5183 5191 5196 5200 5204 5209 5213 5218 5222 5226 5231 5235 5238 5242 5253 5266 5274 5277 5281 5285 5288 5291 5295 5297 5299 5302 5304 5307 5311 5314 5318 5321 5322 5323 5324 5325 5326 5327 5329 5332 5335 5336 5338 5338 5339 5340 5340 5341 5340 5340 5340 5340 5341 5342 5342
5189 5186 5182 5179 5176 5173 5170 5167 5165 5163 5160 5158 5156 5155 5154 5153 5153 5153 5151 5148 5147 5147 5147 5147 5148 5149 5150 5152 5156 5162 5169 5175 5180 5183 5188 5193 5199 5204 5207 5211 5216 5219 5221 5227 5241 5256 5263 5267 5272 5276 5278 5280 5283 5286 5289 5292 5294 5296 5299 5303 5306 5308 5310 5311 5311 5311 5313 5315 5319 5321 5324 5326 5327 5327 5328 5329 5330 5331 5330 5330 5330 5330 5331 5331 5331
5183 5179 5175 5172 5169 5166 5163 5159 5156 5153 5151 5148 5147 5145 5144 5142 5142 5141 5141 5139 5138 5137 5137 5137 5137 5138 5139 5141 5144 5148 5154 5160 5164 5169 5173 5178 5184 5189 5192 5196 5200 5204 5207 5216 5231 5245 5252 5256 5261 5264 5266 5269 5272 5274 5278 5282 5284 5285 5287 5290 5293 5296 5298 5299 5298 5299 5302 5305 5308 5311 5313 5314 5315 5316 5317 5318 5320 5320 5321 5321 5321 5321 5321 5321 5321
5179 5174 5170 5166 5162 5159 5155 5152 5148 5146 5143 5140 5138 5136 5134 5132 5131 5130 5130 5129 5129 5129 5129 5128 5128 5128 5129 5131 5134 5137 5142 5146 5151 5156 5161 5165 5171 5175 5177 5180 5187 5193 5198 5207 5220 5232 5240 5245 5249 5252 5256 5259 5262 5264 5267 5270 5273 5274 5275 5278 5282 5284 5286 5286 5287 5289 5292 5295 5298 5300 5302 5303 5305 5306 5307 5307 5309 5310 5311 5311 5311 5311 5311 5312 5311
5175 5171 5166 5162 5158 5153 5149 5145 5141 5138 5135 5133 5130 5127 5125 5123 5121 5120 5120 5120 5120 5121 5121 5121 5120 5120 5121 5123 5125 5128 5131 5135 5139 5144 5149 5154 5158 5160 5163 5169 5178 5184 5189 5196 5206 5217 5226 5232 5236 5240 5245 5249 5252 5254 5256 5259 5262 5263 5264 5267 5270 5272 5274 5275 5277 5279 5282 5285 5287 5289 5291 5293 5294 5295 5296 5297 5297 5299 5300 5301 5302 5302 5302 5303 5302
5171 5168 5164 5159 5154 5148 5143 5139 5135 5131 5128 5125 5122 5119 5117 5115 5113 5112 5112 5112 5113 5113 5114 5114 5113 5113 5114 5115 5116 5119 5122 5125 5128 5133 5139 5143 5146 5148 5153 5161 5169 5174 5179 5185 5193 5203 5212 5219 5224 5228 5234 5238 5242 5244 5246 5248 5250 5251 5253 5256 5259 5261 5263 5265 5268 5270 5273 5275 5277 5280 5281 5283 5284 5285 5285 5286 5287 5288 5289 5291 5292 5292 5293 5293 5293
5168 5164 5160 5155 5150 5144 5139 5135 5130 5126 5122 5119 5116 5114 5111 5109 5108 5107 5106 5106 5107 5107 5108 5108 5107 5107 5108 5108 5109 5111 5114 5117 5120 5124 5129 5133 5135 5140 5147 5154 5158 5164 5169 5175 5181 5190 5199 5206 5211 5217 5222 5227 5231 5233 5235 5236 5237 5239 5243 5246 5248 5250 5253 5257 5259 5262 5265 5267 5268 5271 5272 5274 5275 5276 5276 5277 5278 5279 5280 5281 5282 5283 5283 5283 5283
5166 5162 5157 5152 5146 5141 5136 5132 5127 5123 5119 5115 5112 5110 5107 5105 5104 5103 5102 5102 5102 5102 5102 5102 5102 5102 5102 5103 5103 5105 5107 5109 5112 5116 5121 5125 5128 5133 5140 5145 5149 5154 5160 5164 5170 5179 5187 5193 5199 5205 5210 5215 5219 5221 5222 5222 5223 5226 5231 5235 5238 5241 5245 5248 5251 5254 5256 5258 5260 5262 5264 5265 5266 5267 5268 5269 5270 5271 5272 5272 5273 5273 5273 5272 5272
5164 5160 5155 5150 5144 5139 5134 5130 5125 5121 5117 5114 5111 5108 5105 5103 5101 5100 5099 5098 5098 5097 5097 5097 5097 5097 5098 5098 5099 5100 5102 5104 5107 5111 5115 5119 5122 5128 5133 5137 5140 5145 5150 5154 5161 5168 5175 5182 5188 5194 5199 5204 5206 5206 5206 5208 5211 5216 5221 5225 5229 5234 5237 5239 5242 5244 5246 5248 5250 5252 5254 5256 5257 5257 5258 5260 5261 5262 5262 5262 5262 5262 5262 5262 5261
5162 5158 5153 5149 5143 5138 5133 5129 5124 5121 5117 5114 5111 5109 5106 5103 5101 5099 5097 5095 5094 5093 5093 5093 5093 5093 5094 5094 5095 5097 5098 5101 5104 5106 5110 5114 5117 5122 5126 5130 5133 5137 5141 5147 5153 5159 5165 5171 5177 5182 5187 5190 5190 5190 5192 5197 5202 5207 5211 5216 5221 5225 5227 5230 5232 5234 5236 5238 5241 5243 5244 5246 5247 5248 5249 5250 5251 5251 5252 5252 5252 5252 5252 5251 5251
5160 5156 5152 5148 5143 5138 5133 5129 5125 5122 5118 5116 5113 5110 5108 5105 5102 5100 5097 5095 5093 5092 5091 5090 5090 5090 5091 5091 5092 5094 5096 5098 5100 5103 5106 5110 5113 5116 5120 5123 5126 5130 5134 5139 5144 5149 5155 5160 5164 5169 5173 5174 5174 5177 5183 5189 5194 5199 5203 5207 5212 5215 5218 5220 5222 5224 5227 5229 5231 5233 5234 5235 5236 5238 5239 5240 5240 5241 5241 5241 5241 5242 5241 5241 5240
5159 5155 5151 5147 5143 5139 5134 5130 5126 5123 5120 5117 5115 5112 5110 5107 5104 5102 5099 5097 5094 5092 5091 5090 5089 5089 5089 5090 5091 5092 5094 5096 5098 5100 5103 5105 5108 5111 5114 5116 5120 5123 5126 5130 5135 5140 5143 5147 5151 5157 5160 5161 5164 5170 5176 5180 5185 5190 5195 5199 5203 5206 5208 5211 5213 5215 5217 5219 5221 5223 5224 5225 5226 5228 5229 5230 5230 5230 5231 5231 5231 5231 5231 5231 5230
5158 5155 5151 5147 5143 5139 5135 5131 5127 5124 5121 5118 5116 5113 5111 5109 5106 5104 5102 5099 5097 5095 5093 5091 5090 5089 5089 5090 5090 5091 5093 5094 5095 5097 5099 5101 5104 5106 5109 5111 5114 5116 5119 5123 5126 5130 5134 5138 5143 5147 5150 5152 5157 5164 5169 5173 5178 5183 5187 5191 5194 5196 5199 5201 5204 5206 5208 5210 5212 5214 5215 5216 5217 5218 5219 5220 5220 5220 5220 5221 5221 5221 5221 5221 5220
5158 5154 5150 5147 5143 5139 5135 5132 5128 5125 5122 5119 5116 5114 5112 5110 5108 5106 5104 5102 5100 5098 5095 5094 5092 5091 5091 5091 5091 5092 5093 5093 5094 5096 5097 5098 5100 5102 5104 5106 5109 5111 5113 5116 5120 5123 5127 5131 5134 5138 5141 5146 5152 5157 5162 5167 5171 5175 5179 5182 5185 5188 5190 5193 5195 5197 5199 5202 5204 5205 5206 5207 5208 5209 5210 5210 5210 5210 5210 5211 5211 5211 5211 5211 5211
5159 5155 5151 5147 5143 5139 5136 5132 5129 5126 5123 5120 5118 5115 5113 5111 5109 5107 5105 5104 5102 5100 5098 5097 5095 5094 5093 5093 5092 5093 5093 5094 5094 5095 5096 5097 5098 5100 5101 5103 5104 5106 5109 5112 5114 5118 5121 5124 5127 5131 5135 5141 5146 5151 5156 5161 5165 5168 5171 5174 5177 5180 5183 5185 5187 5189 5192 5194 5195 5196 5197 5198 5199 5200 5201 5201 5201 5201 5201 5201 5201 5202 5201 5201 5202
5161 5157 5153 5149 5145 5140 5137 5133 5129 5126 5124 5121 5118 5116 5113 5111 5109 5107 5106 5104 5103 5101 5100 5099 5097 5096 5095 5094 5094 5094 5094 5094 5094 5094 5095 5096 5097 5098 5099 5100 5102 5104 5106 5108 5111 5113 5116 5120 5123 5127 5131 5136 5142 5146 5150 5155 5158 5162 5165 5167 5170 5172 5175 5177 5179 5181 5183 5185 5186 5188 5189 5190 5191 5191 5192 5192 5192 5193 5193 5192 5192 5193 5193 5193 5193
5162 5158 5154 5150 5146 5142 5139 5135 5131 5127 5124 5121 5119 5116 5114 5111 5109 5107 5106 5104 5103 5101 5100 5099 5098 5097 5097 5096 5096 5095 5095 5095 5094 5094 5094 5095 5096 5097 5098 5099 5100 5102 5104 5106 5108 5111 5113 5116 5120 5124 5128 5133 5137 5141 5145 5149 5152 5155 5158 5160 5162 5165 5167 5169 5171 5173 5175 5176 5178 5179 5180 5182 5183 5183 5184 5184 5184 5185 5185 5184 5184 5184 5184 5184 5183
5162 5158 5155 5151 5148 5144 5140 5137 5133 5130 5126 5122 5119 5117 5114 5112 5110 5107 5106 5104 5102 5101 5100 5099 5099 5098 5097 5097 5097 5097 5096 5096 5095 5095 5095 5096 5096 5097 5098 5099 5100 5101 5103 5104 5106 5109 5112 5115 5118 5122 5126 5130 5134 5137 5141 5144 5146 5149 5151 5153 5155 5158 5160 5162 5164 5166 5167 5169 5171 5172 5173 5175 5175 5176 5177 5177 5177 5177 5177 5176 5176 5176 5175 5175 5175
5162 5158 5155 5151 5148 5145 5141 5138 5134 5131 5128 5124 5121 5118 5115 5112 5110 5108 5106 5104 5102 5101 5100 5099 5098 5098 5097 5097 5097 5097 5097 5097 5097 5097 5097 5097 5098 5098 5099 5100 5100 5101 5103 5104 5106 5109 5112 5115 5118 5121 5124 5128 5131 5134 5136 5139 5141 5143 5146 5148 5150 5152 5155 5156 5158 5160 5162 5163 5165 5166 5167 5168 5168 5169 5169 5169 5169 5169 5169 5168 5168 5168 5167 5167 5166
5161 5158 5154 5151 5148 5144 5141 5138 5135 5132 5129 5125 5122 5119 5116 5113 5110 5108 5106 5104 5103 5101 5100 5099 5098 5098 5097 5097 5097 5097 5097 5097 5097 5097 5098 5098 5099 5099 5100 5100 5101 5102 5103 5105 5107 5109 5112 5114 5117 5119 5122 5125 5128 5130 5132 5135 5137 5139 5141 5143 5145 5148 5150 5151 5153 5155 5156 5157 5158 5159 5160 5161 5161 5161 5162 5161 5161 5161 5161 5161 5161 5161 5160 5159 5159